+ View the NASA Portal
+ Center for Near-Earth Object Studies
IMPORTANT:
The SSD Announcement email list is now available. Major changes are coming in the near future, including possible hostname and/or URL changes. To be notified of such changes, subscribe to this email list.
Please visit
this page
for more details.
Don't show this message again
JPL Small-Body Database Browser
Search:
[
help
]
437783 (2015 CV5)
Classification:
Main-belt Asteroid
SPK-ID:
2437783
[
Ephemeris
|
Orbit Diagram
|
Orbital Elements
|
Mission Design
|
Physical Parameters
|
Discovery Circumstances
|
Close-Approach Data
]
[ show orbit diagram ]
Orbital Elements at Epoch 2458600.5 (2019-Apr-27.0) TDB
Reference:
JPL 15
(heliocentric ecliptic J2000)
Element
Value
Uncertainty (1-sigma)
Units
e
.05227762417778996
9.9583e-08
a
3.105410710786933
8.5344e-08
au
q
2.94306721673073
2.8584e-07
au
i
2.514692202675482
1.0414e-05
deg
node
309.2392790570461
0.00015258
deg
peri
197.402363477804
0.00017148
deg
M
260.8289036444518
7.304e-05
deg
t
p
2459151.129671696720
(2020-Oct-28.62967170)
0.00040432
TDB
period
1998.835236227874
5.47
8.2399e-05
2.256e-07
d
yr
n
.1801048898254257
7.4245e-09
deg/d
Q
3.267754204843136
8.9805e-08
au
Orbit Determination Parameters
# obs. used (total)
109
data-arc span
6232 days (17.06 yr)
first obs. used
2001-08-20
last obs. used
2018-09-12
planetary ephem.
DE431
SB-pert. ephem.
SB431-N16
condition code
0
norm. resid. RMS
.60921
source
ORB
producer
Otto Matic
solution date
2018-Oct-04 12:14:14
Additional Information
Earth MOID
= 1.9553 au
Jupiter MOID
= 1.7326 au
T_jup
= 3.217
[ show covariance matrix ]
[
Ephemeris
|
Orbit Diagram
|
Orbital Elements
|
Mission Design
|
Physical Parameters
|
Discovery Circumstances
|
Close-Approach Data
]
Physical Parameter Table
Parameter
Symbol
Value
Units
Sigma
Reference
Notes
absolute magnitude
H
16.3
n/a
MPO456079
437783 (2015 CV5)
Discovered 2008-Nov-19 by Mt. Lemmon Survey at Mount Lemmon
Reference:
Last Updated:
2015-06-04
[ show close-approach data ]
Alternate Designations
2015 CV5
= 2001 QU314 = 2010 KH122 = 2012 PD27 = 2015 AX252
[
Ephemeris
|
Orbit Diagram
|
Orbital Elements
|
Mission Design
|
Physical Parameters
|
Discovery Circumstances
|
Close-Approach Data
]
2019-Dec-14 08:31 UT
(server date/time)
Site Manager:
Ryan S. Park
Webmaster
:
Alan B. Chamberlin